Location: El Centro
(32.7920°N, 115.5620°W)
Time: 09:19:08
(UTC-08:00)

Hamsat - Visible Passes

Search period start: 24 February 2017 00:00
Search period end: 06 March 2017 00:00
Orbit: 585 x 619 km, 97.6° (Epoch: 23 February)

Date Brightness Start Highest point End Pass type
(mag) Time Alt. Az. Time Alt. Az. Time Alt. Az.
28 Feb ? 03:43:54 10° NNE 03:44:18 13° NNE 03:44:18 13° NNE visible
01 Mar ? 03:55:40 10° N 03:56:26 15° N 03:56:26 15° N visible
02 Mar ? 04:07:32 10° N 04:08:35 17° N 04:08:35 17° N visible
03 Mar ? 04:19:28 10° N 04:20:43 18° NNW 04:20:43 18° NNW visible
04 Mar ? 04:31:32 10° NNW 04:32:51 18° NNW 04:32:51 18° NNW visible
05 Mar ? 03:07:57 10° NE 03:08:11 11° NE 03:08:11 11° NE visible
05 Mar ? 04:43:41 10° NNW 04:45:00 16° NW 04:45:00 16° NW visible
